,,Stat5,,Stat1,,Stat2,,Stat3,,Stat4,,Wind1,,Wind1,
time,status,PA1M_AVG,status,PR1M_SUM,status,RH1M_AVG,status,SR1M_AVG,status,TA1M_AVG,status,W1dAve1m,status,W1sAve1m,
2001-09-28, 00:00:00,VALID,917.113,VALID,0,VALID,95.3475,VALID,0,VALID,19.3712,VALID,103,VALID,1.20052,
2001-09-28, 00:01:00,VALID,917.092,VALID,0,VALID,94.9723,VALID,-0.0169808,VALID,19.3936,VALID,105,VALID,1.31188,
2001-09-28, 00:02:00,VALID,917.063,VALID,0,VALID,94.7473,VALID,-0.0169808,VALID,19.4224,VALID,99,VALID,1.03495,
2001-09-28, 00:03:00,VALID,917.025,VALID,0,VALID,94.7956,VALID,0,VALID,19.4515,VALID,103,VALID,1.15393,
2001-09-28, 00:04:00,VALID,916.991,VALID,0,VALID,94.7155,VALID,-0.0339617,VALID,19.4776,VALID,90,VALID,0.714316,
2001-09-28, 00:05:00,VALID,916.971,VALID,0,VALID,94.4217,VALID,-0.0169808,VALID,19.4776,VALID,90,VALID,0.480239,
2001-09-28, 00:06:00,VALID,916.95,VALID,0,VALID,94.3938,VALID,0,VALID,19.4644,VALID,92,VALID,0.527344,
2001-09-28, 00:07:00,VALID,916.94,VALID,0,VALID,94.4675,VALID,0,VALID,19.445,VALID,90,VALID,0.598661,
2001-09-28, 00:08:00,VALID,916.918,VALID,0,VALID,94.6112,VALID,-0.0169808,VALID,19.4197,VALID,90,VALID,0.677734,
2001-09-28, 00:09:00,VALID,916.9,VALID,0,VALID,94.7256,VALID,0,VALID,19.41,VALID,99,VALID,0.719595,
2001-09-28, 00:10:00,VALID,916.884,VALID,0,VALID,94.7422,VALID,0,VALID,19.3804,VALID,87,VALID,0.549679,
2001-09-28, 00:11:00,VALID,916.849,VALID,0,VALID,94.6557,VALID,-0.0169808,VALID,19.3705,VALID,73,VALID,0.511513,
2001-09-28, 00:12:00,VALID,916.825,VALID,0,VALID,94.4853,VALID,0,VALID,19.3543,VALID,89,VALID,0.226357,
2001-09-28, 00:13:00,VALID,916.797,VALID,0,VALID,94.3759,VALID,0,VALID,19.3191,VALID,90,VALID,0.366987,
2001-09-28, 00:14:00,VALID,916.767,VALID,0,VALID,94.5845,VALID,-0.0339617,VALID,19.2937,VALID,94,VALID,0.331445,
2001-09-28, 00:15:00,VALID,916.768,VALID,0,VALID,94.7371,VALID,0,VALID,19.2641,VALID,118,VALID,0.434005,
2001-09-28, 00:16:00,VALID,916.743,VALID,0,VALID,94.8414,VALID,0,VALID,19.2738,VALID,118,VALID,0.247122,
2001-09-28, 00:17:00,VALID,916.736,VALID,0,VALID,94.7969,VALID,-0.0169808,VALID,19.2766,VALID,101,VALID,0.280222,
2001-09-28, 00:18:00,VALID,916.734,VALID,0,VALID,94.7333,VALID,-0.0169808,VALID,19.2805,VALID,83,VALID,0.52241,
2001-09-28, 00:19:00,VALID,916.721,VALID,0,VALID,94.6837,VALID,-0.0509425,VALID,19.2545,VALID,108,VALID,0.309827,
2001-09-28, 00:20:00,VALID,916.705,VALID,0,VALID,94.6671,VALID,-0.0339617,VALID,19.2448,VALID,112,VALID,0.0347451,
2001-09-28, 00:21:00,VALID,916.698,VALID,0,VALID,94.643,VALID,0,VALID,19.2418,VALID,112,VALID,0,
2001-09-28, 00:22:00,VALID,916.691,VALID,0,VALID,94.5565,VALID,-0.0169808,VALID,19.2229,VALID,112,VALID,0.0136719,
2001-09-28, 00:23:00,VALID,916.682,VALID,0,VALID,94.2844,VALID,-0.0169808,VALID,19.1576,VALID,97,VALID,0.247122,
2001-09-28, 00:24:00,VALID,916.69,VALID,0,VALID,94.3569,VALID,0,VALID,19.0967,VALID,75,VALID,0.334293,
2001-09-28, 00:25:00,VALID,916.697,VALID,0,VALID,94.7498,VALID,-0.0339617,VALID,19.0609,VALID,67,VALID,0.244655,
2001-09-28, 00:26:00,VALID,916.691,VALID,0,VALID,95.0728,VALID,-0.0169808,VALID,19.0413,VALID,67,VALID,0.124178,
2001-09-28, 00:27:00,VALID,916.687,VALID,0,VALID,95.2928,VALID,-0.0169808,VALID,19.045,VALID,68,VALID,0.212788,
2001-09-28, 00:28:00,VALID,916.677,VALID,0,VALID,95.7111,VALID,0,VALID,19.0482,VALID,142,VALID,0.38303,
2001-09-28, 00:29:00,VALID,916.673,VALID,0,VALID,95.823,VALID,0,VALID,19.0574,VALID,139,VALID,0.391026,
2001-09-28, 00:30:00,VALID,916.663,VALID,0,VALID,95.9044,VALID,-0.0509425,VALID,19.0907,VALID,133,VALID,0.423633,
2001-09-28, 00:31:00,VALID,916.656,VALID,0,VALID,95.8243,VALID,-0.0509425,VALID,19.0967,VALID,116,VALID,0.473684,
2001-09-28, 00:32:00,VALID,916.651,VALID,0,VALID,95.8408,VALID,-0.0849042,VALID,19.1138,VALID,126,VALID,0.714021,
2001-09-28, 00:33:00,VALID,916.651,VALID,0,VALID,95.8141,VALID,-0.0679233,VALID,19.1364,VALID,118,VALID,0.86102,
2001-09-28, 00:34:00,VALID,916.639,VALID,0,VALID,95.8726,VALID,-0.0509425,VALID,19.1491,VALID,123,VALID,0.960526,
2001-09-28, 00:35:00,VALID,916.646,VALID,0,VALID,95.7874,VALID,-0.0849042,VALID,19.159,VALID,112,VALID,0.793586,
2001-09-28, 00:36:00,VALID,916.635,VALID,0,VALID,95.776,VALID,-0.0849042,VALID,19.1396,VALID,121,VALID,0.813528,
2001-09-28, 00:37:00,VALID,916.644,VALID,0,VALID,95.9833,VALID,-0.0509425,VALID,19.1265,VALID,122,VALID,0.816106,
2001-09-28, 00:38:00,VALID,916.648,VALID,0,VALID,96.2719,VALID,-0.0339617,VALID,19.126,VALID,120,VALID,1.06133,
2001-09-28, 00:39:00,VALID,916.65,VALID,0,VALID,96.3457,VALID,-0.0339617,VALID,19.1269,VALID,123,VALID,1.04174,
2001-09-28, 00:40:00,VALID,916.649,VALID,0,VALID,96.4512,VALID,-0.0339617,VALID,19.1133,VALID,139,VALID,0.787212,
2001-09-28, 00:41:00,VALID,916.64,VALID,0,VALID,96.6165,VALID,-0.0849042,VALID,19.1433,VALID,134,VALID,1.21176,
2001-09-28, 00:42:00,VALID,916.622,VALID,0,VALID,96.5746,VALID,-0.0679233,VALID,19.1521,VALID,125,VALID,1.28289,
2001-09-28, 00:43:00,VALID,916.614,VALID,0,VALID,96.3762,VALID,-0.101885,VALID,19.1943,VALID,141,VALID,1.21032,
2001-09-28, 00:44:00,VALID,916.616,VALID,0,VALID,96.188,VALID,0,VALID,19.2398,VALID,137,VALID,1.20189,
2001-09-28, 00:45:00,VALID,916.615,VALID,0,VALID,95.9324,VALID,-0.0679233,VALID,19.2753,VALID,138,VALID,1.24339,
2001-09-28, 00:46:00,VALID,916.596,VALID,0,VALID,95.6336,VALID,-0.101885,VALID,19.324,VALID,142,VALID,1.29004,
2001-09-28, 00:47:00,VALID,916.58,VALID,0,VALID,95.4072,VALID,-0.0339617,VALID,19.3528,VALID,136,VALID,1.60835,
2001-09-28, 00:48:00,VALID,916.574,VALID,0,VALID,95.1338,VALID,-0.0509425,VALID,19.4043,VALID,125,VALID,1.38487,
2001-09-28, 00:49:00,VALID,916.57,VALID,0,VALID,95.0092,VALID,-0.0509425,VALID,19.4299,VALID,136,VALID,1.22759,
2001-09-28, 00:50:00,VALID,916.572,VALID,0,VALID,94.9405,VALID,-0.0679233,VALID,19.4624,VALID,136,VALID,1.08368,
2001-09-28, 00:51:00,VALID,916.556,VALID,0,VALID,94.8134,VALID,-0.0849042,VALID,19.482,VALID,132,VALID,0.808388,
2001-09-28, 00:52:00,VALID,916.543,VALID,0,VALID,94.6328,VALID,-0.0509425,VALID,19.4945,VALID,131,VALID,0.976974,
2001-09-28, 00:53:00,VALID,916.523,VALID,0,VALID,94.3823,VALID,-0.0679233,VALID,19.4947,VALID,136,VALID,1.05629,
2001-09-28, 00:54:00,VALID,916.501,VALID,0,VALID,93.9194,VALID,-0.0679233,VALID,19.5138,VALID,146,VALID,0.94082,
2001-09-28, 00:55:00,VALID,916.477,VALID,0,VALID,93.7821,VALID,-0.0509425,VALID,19.5295,VALID,135,VALID,0.602179,
2001-09-28, 00:56:00,VALID,916.447,VALID,0,VALID,93.6931,VALID,-0.0679233,VALID,19.5466,VALID,135,VALID,0.999383,
2001-09-28, 00:57:00,VALID,916.432,VALID,0,VALID,93.5494,VALID,-0.0849042,VALID,19.5596,VALID,138,VALID,0.999383,
2001-09-28, 00:58:00,VALID,916.415,VALID,0,VALID,93.435,VALID,-0.0849042,VALID,19.5529,VALID,129,VALID,1.02179,
2001-09-28, 00:59:00,VALID,916.397,VALID,0,VALID,93.3955,VALID,-0.0339617,VALID,19.5397,VALID,123,VALID,0.429071,
2001-09-28, 01:00:00,VALID,916.386,VALID,0,VALID,93.201,VALID,-0.0509425,VALID,19.5432,VALID,117,VALID,1.04338,
2001-09-28, 01:01:00,VALID,916.364,VALID,0,VALID,93.009,VALID,-0.0679233,VALID,19.5397,VALID,75,VALID,0.689904,
2001-09-28, 01:02:00,VALID,916.357,VALID,0,VALID,92.8526,VALID,-0.0509425,VALID,19.5201,VALID,65,VALID,0.656445,
2001-09-28, 01:03:00,VALID,916.347,VALID,0,VALID,92.822,VALID,-0.0679233,VALID,19.4786,VALID,60,VALID,0.93236,
2001-09-28, 01:04:00,VALID,916.336,VALID,0,VALID,93.1234,VALID,-0.0679233,VALID,19.4043,VALID,59,VALID,0.973479,
2001-09-28, 01:05:00,VALID,916.334,VALID,0,VALID,93.5621,VALID,-0.0679233,VALID,19.3297,VALID,60,VALID,1.04667,
2001-09-28, 01:06:00,VALID,916.322,VALID,0,VALID,93.9182,VALID,-0.0679233,VALID,19.2813,VALID,80,VALID,1.0037,
2001-09-28, 01:07:00,VALID,916.31,VALID,0,VALID,94.3505,VALID,-0.0509425,VALID,19.2589,VALID,86,VALID,0.847656,
2001-09-28, 01:08:00,VALID,916.301,VALID,0,VALID,94.5514,VALID,-0.0679233,VALID,19.2559,VALID,94,VALID,0.972656,
2001-09-28, 01:09:00,VALID,916.281,VALID,0,VALID,94.5425,VALID,-0.101885,VALID,19.2557,VALID,97,VALID,0.629808,
2001-09-28, 01:10:00,VALID,916.268,VALID,0,VALID,94.6163,VALID,-0.0679233,VALID,19.2686,VALID,112,VALID,0.784961,
2001-09-28, 01:11:00,VALID,916.255,VALID,0,VALID,94.5921,VALID,-0.0509425,VALID,19.2746,VALID,111,VALID,0.556743,
2001-09-28, 01:12:00,VALID,916.234,VALID,0,VALID,94.774,VALID,-0.0679233,VALID,19.2815,VALID,139,VALID,0.700658,
2001-09-28, 01:13:00,VALID,916.216,VALID,0,VALID,94.7918,VALID,-0.0169808,VALID,19.2974,VALID,136,VALID,0.588405,
2001-09-28, 01:14:00,VALID,916.189,VALID,0,VALID,94.8642,VALID,-0.0849042,VALID,19.2942,VALID,137,VALID,0.772204,
2001-09-28, 01:15:00,VALID,916.167,VALID,0,VALID,94.9418,VALID,-0.0509425,VALID,19.2907,VALID,131,VALID,0.922286,
2001-09-28, 01:16:00,VALID,916.15,VALID,0,VALID,94.9189,VALID,-0.0509425,VALID,19.2905,VALID,131,VALID,0.487048,
2001-09-28, 01:17:00,VALID,916.138,VALID,0,VALID,94.9278,VALID,-0.0509425,VALID,19.2939,VALID,117,VALID,0.558494,
2001-09-28, 01:18:00,VALID,916.131,VALID,0,VALID,94.9444,VALID,-0.0679233,VALID,19.2972,VALID,131,VALID,0.74375,
2001-09-28, 01:19:00,VALID,916.128,VALID,0,VALID,94.8375,VALID,-0.0679233,VALID,19.3136,VALID,109,VALID,0.398643,
2001-09-28, 01:20:00,VALID,916.11,VALID,0,VALID,94.7015,VALID,-0.0509425,VALID,19.3359,VALID,117,VALID,0.431538,
2001-09-28, 01:21:00,VALID,916.105,VALID,0,VALID,94.5514,VALID,-0.0509425,VALID,19.3394,VALID,118,VALID,0.39926,
2001-09-28, 01:22:00,VALID,916.105,VALID,0,VALID,94.5273,VALID,-0.0169808,VALID,19.3489,VALID,156,VALID,0.535979,
2001-09-28, 01:23:00,VALID,916.106,VALID,0,VALID,94.479,VALID,-0.0339617,VALID,19.3484,VALID,146,VALID,0.871299,
2001-09-28, 01:24:00,VALID,916.108,VALID,0,VALID,94.4929,VALID,-0.0169808,VALID,19.3556,VALID,142,VALID,0.976357,
2001-09-28, 01:25:00,VALID,916.115,VALID,0,VALID,94.5425,VALID,-0.0339617,VALID,19.3456,VALID,136,VALID,0.407252,
2001-09-28, 01:26:00,VALID,916.127,VALID,0,VALID,94.5616,VALID,-0.0679233,VALID,19.3392,VALID,130,VALID,0.168945,
2001-09-28, 01:27:00,VALID,916.123,VALID,0,VALID,94.5756,VALID,-0.0339617,VALID,19.3133,VALID,141,VALID,0.279605,
2001-09-28, 01:28:00,VALID,916.128,VALID,0,VALID,94.6519,VALID,-0.0679233,VALID,19.317,VALID,281,VALID,0.170847,
2001-09-28, 01:29:00,VALID,916.137,VALID,0,VALID,94.6392,VALID,-0.0169808,VALID,19.2905,VALID,351,VALID,0.00986842,
2001-09-28, 01:30:00,VALID,916.138,VALID,0,VALID,94.5985,VALID,-0.0509425,VALID,19.2778,VALID,351,VALID,0.00102796,
2001-09-28, 01:31:00,VALID,916.15,VALID,0,VALID,94.5095,VALID,-0.0169808,VALID,19.2554,VALID,360,VALID,0.299753,
2001-09-28, 01:32:00,VALID,916.152,VALID,0,VALID,94.4344,VALID,0,VALID,19.1998,VALID,13,VALID,0.502878,
2001-09-28, 01:33:00,VALID,916.149,VALID,0,VALID,94.5082,VALID,-0.0339617,VALID,19.1483,VALID,13,VALID,0.393029,
2001-09-28, 01:34:00,VALID,916.165,VALID,0,VALID,94.746,VALID,-0.0509425,VALID,19.1193,VALID,13,VALID,0.0443359,
2001-09-28, 01:35:00,VALID,916.168,VALID,0,VALID,94.8655,VALID,-0.0339617,VALID,19.1133,VALID,12,VALID,0,
2001-09-28, 01:36:00,VALID,916.169,VALID,0,VALID,94.9049,VALID,-0.0849042,VALID,19.0909,VALID,13,VALID,0.0197368,
2001-09-28, 01:37:00,VALID,916.184,VALID,0,VALID,94.9024,VALID,-0.0169808,VALID,19.0554,VALID,12,VALID,0.0555099,
2001-09-28, 01:38:00,VALID,916.165,VALID,0,VALID,95.0321,VALID,-0.0339617,VALID,19.0263,VALID,13,VALID,0,
2001-09-28, 01:39:00,VALID,916.165,VALID,0,VALID,95.2445,VALID,-0.0509425,VALID,19.0196,VALID,13,VALID,0.00123355,
2001-09-28, 01:40:00,VALID,916.149,VALID,0,VALID,95.2979,VALID,-0.0679233,VALID,19.0102,VALID,13,VALID,0,
2001-09-28, 01:41:00,VALID,916.125,VALID,0,VALID,95.3322,VALID,-0.0169808,VALID,18.9841,VALID,12,VALID,0,
2001-09-28, 01:42:00,VALID,916.127,VALID,0,VALID,95.3932,VALID,-0.0169808,VALID,18.9739,VALID,13,VALID,0,
2001-09-28, 01:43:00,VALID,916.108,VALID,0,VALID,95.5204,VALID,-0.0169808,VALID,18.955,VALID,85,VALID,0.240132,
2001-09-28, 01:44:00,VALID,916.096,VALID,0,VALID,95.5865,VALID,0,VALID,18.9548,VALID,146,VALID,0.270354,
2001-09-28, 01:45:00,VALID,916.095,VALID,0,VALID,95.3729,VALID,-0.0339617,VALID,18.9486,VALID,97,VALID,0.434622,
2001-09-28, 01:46:00,VALID,916.09,VALID,0,VALID,95.1834,VALID,-0.0679233,VALID,18.9133,VALID,102,VALID,0.554071,
2001-09-28, 01:47:00,VALID,916.097,VALID,0,VALID,95.5344,VALID,-0.0169808,VALID,18.9098,VALID,123,VALID,0.392064,
2001-09-28, 01:48:00,VALID,916.096,VALID,0,VALID,95.5776,VALID,-0.0169808,VALID,18.926,VALID,105,VALID,0.243421,
2001-09-28, 01:49:00,VALID,916.091,VALID,0,VALID,95.6094,VALID,-0.0679233,VALID,18.9424,VALID,99,VALID,0.59355,
2001-09-28, 01:50:00,VALID,916.084,VALID,0,VALID,95.1758,VALID,-0.0169808,VALID,18.9488,VALID,82,VALID,0.403125,
2001-09-28, 01:51:00,VALID,916.075,VALID,0,VALID,94.6074,VALID,-0.0849042,VALID,18.8944,VALID,49,VALID,0.67352,
2001-09-28, 01:52:00,VALID,916.07,VALID,0,VALID,94.76,VALID,-0.0849042,VALID,18.8358,VALID,45,VALID,0.689145,
2001-09-28, 01:53:00,VALID,916.062,VALID,0,VALID,95.1987,VALID,-0.0849042,VALID,18.8295,VALID,53,VALID,0.777755,
2001-09-28, 01:54:00,VALID,916.052,VALID,0,VALID,95.3487,VALID,-0.0849042,VALID,18.8263,VALID,55,VALID,0.802426,
2001-09-28, 01:55:00,VALID,916.041,VALID,0,VALID,95.322,VALID,-0.0509425,VALID,18.8199,VALID,54,VALID,0.622944,
2001-09-28, 01:56:00,VALID,916.034,VALID,0,VALID,95.2343,VALID,-0.0339617,VALID,18.8035,VALID,62,VALID,0.515419,
2001-09-28, 01:57:00,VALID,916.023,VALID,0,VALID,95.233,VALID,-0.0679233,VALID,18.8037,VALID,65,VALID,0.587139,
2001-09-28, 01:58:00,VALID,916.009,VALID,0,VALID,95.1834,VALID,-0.0849042,VALID,18.8139,VALID,62,VALID,0.594727,
2001-09-28, 01:59:00,VALID,916.01,VALID,0,VALID,95.0067,VALID,-0.0509425,VALID,18.8067,VALID,53,VALID,0.644531,
2001-09-28, 02:00:00,VALID,916.003,VALID,0,VALID,94.8566,VALID,-0.0339617,VALID,18.8002,VALID,46,VALID,0.580387,
2001-09-28, 02:01:00,VALID,915.998,VALID,0,VALID,94.8375,VALID,0,VALID,18.7774,VALID,38,VALID,0.816406,
2001-09-28, 02:02:00,VALID,915.997,VALID,0,VALID,94.9367,VALID,0.0849042,VALID,18.7509,VALID,35,VALID,0.822163,
2001-09-28, 02:03:00,VALID,915.978,VALID,0,VALID,95.0219,VALID,0.0509425,VALID,18.7211,VALID,36,VALID,1.01049,
2001-09-28, 02:04:00,VALID,915.97,VALID,0,VALID,94.8782,VALID,0.0849042,VALID,18.6763,VALID,32,VALID,0.849301,
2001-09-28, 02:05:00,VALID,915.953,VALID,0,VALID,95.392,VALID,0.0509425,VALID,18.657,VALID,42,VALID,0.898438,
2001-09-28, 02:06:00,VALID,915.953,VALID,0,VALID,95.7137,VALID,0.0509425,VALID,18.6793,VALID,50,VALID,0.721094,
2001-09-28, 02:07:00,VALID,915.941,VALID,0,VALID,95.687,VALID,0.0339617,VALID,18.7056,VALID,48,VALID,0.994449,
2001-09-28, 02:08:00,VALID,915.931,VALID,0,VALID,95.8294,VALID,0.0849042,VALID,18.7047,VALID,48,VALID,1.32627,
2001-09-28, 02:09:00,VALID,915.935,VALID,0,VALID,95.9438,VALID,0.0339617,VALID,18.7638,VALID,55,VALID,1.00987,
2001-09-28, 02:10:00,VALID,915.923,VALID,0,VALID,95.9171,VALID,0.0509425,VALID,18.7991,VALID,70,VALID,1.0884,
2001-09-28, 02:11:00,VALID,915.932,VALID,0,VALID,95.8841,VALID,0.0339617,VALID,18.8445,VALID,69,VALID,1.05201,
2001-09-28, 02:12:00,VALID,915.911,VALID,0,VALID,95.706,VALID,0,VALID,18.8602,VALID,109,VALID,1.01357,
2001-09-28, 02:13:00,VALID,915.904,VALID,0,VALID,95.3614,VALID,0.0509425,VALID,18.9091,VALID,126,VALID,0.984175,
2001-09-28, 02:14:00,VALID,915.893,VALID,0,VALID,94.9571,VALID,0.0169808,VALID,18.9414,VALID,120,VALID,0.872656,
2001-09-28, 02:15:00,VALID,915.882,VALID,0,VALID,94.8375,VALID,0.0509425,VALID,18.9605,VALID,112,VALID,0.896793,
2001-09-28, 02:16:00,VALID,915.875,VALID,0,VALID,94.8019,VALID,0.0509425,VALID,18.9802,VALID,112,VALID,0.914679,
2001-09-28, 02:17:00,VALID,915.864,VALID,0,VALID,94.7867,VALID,-0.0339617,VALID,18.994,VALID,115,VALID,1.10567,
2001-09-28, 02:18:00,VALID,915.857,VALID,0,VALID,94.704,VALID,-0.0679233,VALID,18.9975,VALID,115,VALID,1.11986,
2001-09-28, 02:19:00,VALID,915.871,VALID,0,VALID,94.7078,VALID,-0.0339617,VALID,18.9977,VALID,108,VALID,1.15111,
2001-09-28, 02:20:00,VALID,915.864,VALID,0,VALID,94.5832,VALID,-0.0849042,VALID,19.0171,VALID,107,VALID,1.01069,
2001-09-28, 02:21:00,VALID,915.854,VALID,0,VALID,94.4294,VALID,-0.0679233,VALID,19.0333,VALID,111,VALID,0.804888,
2001-09-28, 02:22:00,VALID,915.847,VALID,0,VALID,94.4675,VALID,-0.0509425,VALID,19.0162,VALID,114,VALID,0.808984,
2001-09-28, 02:23:00,VALID,915.82,VALID,0,VALID,94.5514,VALID,-0.0509425,VALID,18.9906,VALID,113,VALID,0.63014,
2001-09-28, 02:24:00,VALID,915.829,VALID,0,VALID,94.6659,VALID,-0.0339617,VALID,18.965,VALID,114,VALID,0.710526,
2001-09-28, 02:25:00,VALID,915.808,VALID,0,VALID,95.1033,VALID,-0.0339617,VALID,18.9391,VALID,120,VALID,0.922492,
2001-09-28, 02:26:00,VALID,915.796,VALID,0,VALID,95.1682,VALID,-0.0509425,VALID,18.926,VALID,139,VALID,0.75514,
2001-09-28, 02:27:00,VALID,915.796,VALID,0,VALID,95.041,VALID,-0.0339617,VALID,18.9294,VALID,134,VALID,1.07134,
2001-09-28, 02:28:00,VALID,915.774,VALID,0,VALID,94.9736,VALID,-0.0169808,VALID,18.9227,VALID,127,VALID,0.805099,
2001-09-28, 02:29:00,VALID,915.773,VALID,0,VALID,94.9787,VALID,-0.0509425,VALID,18.9163,VALID,121,VALID,0.975962,
2001-09-28, 02:30:00,VALID,915.756,VALID,0,VALID,94.9418,VALID,-0.0339617,VALID,18.9168,VALID,130,VALID,0.721484,
2001-09-28, 02:31:00,VALID,915.751,VALID,0,VALID,94.9672,VALID,0,VALID,18.8835,VALID,108,VALID,1.16591,
2001-09-28, 02:32:00,VALID,915.75,VALID,0,VALID,94.8782,VALID,-0.0509425,VALID,18.8904,VALID,113,VALID,1.59149,
2001-09-28, 02:33:00,VALID,915.743,VALID,0,VALID,94.6176,VALID,-0.0339617,VALID,18.9135,VALID,114,VALID,1.15317,
2001-09-28, 02:34:00,VALID,915.74,VALID,0,VALID,94.3976,VALID,-0.0679233,VALID,18.92,VALID,113,VALID,1.06394,
2001-09-28, 02:35:00,VALID,915.734,VALID,0,VALID,94.4319,VALID,-0.0509425,VALID,18.9068,VALID,113,VALID,1.28207,
2001-09-28, 02:36:00,VALID,915.736,VALID,0,VALID,94.367,VALID,-0.0339617,VALID,18.9071,VALID,101,VALID,1.25226,
2001-09-28, 02:37:00,VALID,915.738,VALID,0,VALID,94.4891,VALID,-0.0679233,VALID,18.8847,VALID,104,VALID,1.34034,
2001-09-28, 02:38:00,VALID,915.738,VALID,0,VALID,94.7396,VALID,-0.0339617,VALID,18.8554,VALID,108,VALID,1.35156,
2001-09-28, 02:39:00,VALID,915.741,VALID,0,VALID,94.76,VALID,-0.0679233,VALID,18.8325,VALID,121,VALID,1.24753,
2001-09-28, 02:40:00,VALID,915.73,VALID,0,VALID,94.8617,VALID,-0.0679233,VALID,18.833,VALID,113,VALID,1.61822,
2001-09-28, 02:41:00,VALID,915.735,VALID,0,VALID,94.8579,VALID,-0.0509425,VALID,18.8169,VALID,112,VALID,1.12891,
2001-09-28, 02:42:00,VALID,915.732,VALID,0,VALID,94.8363,VALID,-0.0509425,VALID,18.8035,VALID,130,VALID,1.09211,
2001-09-28, 02:43:00,VALID,915.712,VALID,0,VALID,94.8541,VALID,-0.0169808,VALID,18.7871,VALID,121,VALID,1.21896,
2001-09-28, 02:44:00,VALID,915.701,VALID,0,VALID,94.8197,VALID,0,VALID,18.767,VALID,105,VALID,0.78639,
2001-09-28, 02:45:00,VALID,915.679,VALID,0,VALID,94.7384,VALID,-0.0169808,VALID,18.7612,VALID,120,VALID,1.33053,
2001-09-28, 02:46:00,VALID,915.663,VALID,0,VALID,94.6888,VALID,-0.0339617,VALID,18.7647,VALID,120,VALID,1.21406,
2001-09-28, 02:47:00,VALID,915.658,VALID,0,VALID,94.5692,VALID,0,VALID,18.7809,VALID,124,VALID,0.740337,
2001-09-28, 02:48:00,VALID,915.646,VALID,0,VALID,94.4255,VALID,0,VALID,18.7935,VALID,129,VALID,1.33183,
2001-09-28, 02:49:00,VALID,915.65,VALID,0,VALID,94.292,VALID,-0.0169808,VALID,18.8196,VALID,127,VALID,0.806332,
2001-09-28, 02:50:00,VALID,915.642,VALID,0,VALID,94.203,VALID,0,VALID,18.8353,VALID,128,VALID,0.787623,
2001-09-28, 02:51:00,VALID,915.649,VALID,0,VALID,94.1878,VALID,0,VALID,18.839,VALID,155,VALID,0.556538,
2001-09-28, 02:52:00,VALID,915.633,VALID,0,VALID,94.1661,VALID,-0.0339617,VALID,18.845,VALID,133,VALID,0.471217,
2001-09-28, 02:53:00,VALID,915.644,VALID,0,VALID,94.1331,VALID,-0.0849042,VALID,18.8621,VALID,146,VALID,0.609184,
2001-09-28, 02:54:00,VALID,915.644,VALID,0,VALID,94.0809,VALID,-0.0339617,VALID,18.8517,VALID,143,VALID,0.776563,
2001-09-28, 02:55:00,VALID,915.647,VALID,0,VALID,94.0669,VALID,0,VALID,18.8551,VALID,137,VALID,0.643092,
2001-09-28, 02:56:00,VALID,915.658,VALID,0,VALID,94.0263,VALID,-0.0339617,VALID,18.8618,VALID,123,VALID,0.694696,
2001-09-28, 02:57:00,VALID,915.647,VALID,0,VALID,93.8279,VALID,-0.0169808,VALID,18.8782,VALID,132,VALID,0.894942,
2001-09-28, 02:58:00,VALID,915.656,VALID,0,VALID,93.5291,VALID,0,VALID,18.8971,VALID,116,VALID,0.583059,
2001-09-28, 02:59:00,VALID,915.656,VALID,0,VALID,93.2544,VALID,-0.0339617,VALID,18.9264,VALID,117,VALID,0.710732,
2001-09-28, 03:00:00,VALID,915.648,VALID,0,VALID,93.0395,VALID,-0.0679233,VALID,18.9583,VALID,119,VALID,0.749178,
2001-09-28, 03:01:00,VALID,915.647,VALID,0,VALID,92.8666,VALID,-0.0169808,VALID,18.9721,VALID,132,VALID,0.720553,
2001-09-28, 03:02:00,VALID,915.629,VALID,0,VALID,92.9403,VALID,0.0339617,VALID,18.9508,VALID,141,VALID,0.818164,
2001-09-28, 03:03:00,VALID,915.615,VALID,0,VALID,92.9924,VALID,0.0849042,VALID,18.9476,VALID,149,VALID,0.76912,
2001-09-28, 03:04:00,VALID,915.599,VALID,0,VALID,93.187,VALID,0.0509425,VALID,18.9312,VALID,144,VALID,0.818873,
2001-09-28, 03:05:00,VALID,915.588,VALID,0,VALID,93.2887,VALID,0.0849042,VALID,18.9285,VALID,141,VALID,0.363898,
2001-09-28, 03:06:00,VALID,915.566,VALID,0,VALID,93.2239,VALID,0.0849042,VALID,18.9123,VALID,122,VALID,0.124794,
2001-09-28, 03:07:00,VALID,915.552,VALID,0,VALID,93.0726,VALID,0.0509425,VALID,18.8867,VALID,102,VALID,0,
2001-09-28, 03:08:00,VALID,915.531,VALID,0,VALID,93.229,VALID,0.0679233,VALID,18.8609,VALID,54,VALID,0.228002,
2001-09-28, 03:09:00,VALID,915.512,VALID,0,VALID,93.0115,VALID,0.0509425,VALID,18.8214,VALID,321,VALID,0.116787,
2001-09-28, 03:10:00,VALID,915.498,VALID,0,VALID,92.6135,VALID,0.0339617,VALID,18.7312,VALID,354,VALID,0.301562,
2001-09-28, 03:11:00,VALID,915.484,VALID,0,VALID,92.8805,VALID,0.0509425,VALID,18.6217,VALID,2,VALID,0.637541,
2001-09-28, 03:12:00,VALID,915.463,VALID,0,VALID,93.4515,VALID,0.0679233,VALID,18.5442,VALID,28,VALID,0.712582,
2001-09-28, 03:13:00,VALID,915.441,VALID,0,VALID,93.9474,VALID,0.0509425,VALID,18.4505,VALID,38,VALID,1.12623,
2001-09-28, 03:14:00,VALID,915.431,VALID,0,VALID,94.7625,VALID,0.0169808,VALID,18.4219,VALID,43,VALID,1.0697,
2001-09-28, 03:15:00,VALID,915.414,VALID,0,VALID,95.041,VALID,0.0339617,VALID,18.4088,VALID,51,VALID,0.918997,
2001-09-28, 03:16:00,VALID,915.407,VALID,0,VALID,95.3347,VALID,0.0509425,VALID,18.409,VALID,54,VALID,0.842105,
2001-09-28, 03:17:00,VALID,915.391,VALID,0,VALID,95.5,VALID,0.0509425,VALID,18.4281,VALID,60,VALID,0.792268,
2001-09-28, 03:18:00,VALID,915.398,VALID,0,VALID,95.0563,VALID,0.0679233,VALID,18.4279,VALID,63,VALID,0.67832,
2001-09-28, 03:19:00,VALID,915.397,VALID,0,VALID,95.1224,VALID,0.0509425,VALID,18.379,VALID,63,VALID,0.833059,
2001-09-28, 03:20:00,VALID,915.392,VALID,0,VALID,95.1186,VALID,0.0339617,VALID,18.3532,VALID,59,VALID,0.701275,
2001-09-28, 03:21:00,VALID,915.396,VALID,0,VALID,94.8859,VALID,0.0849042,VALID,18.3179,VALID,41,VALID,0.362253,
2001-09-28, 03:22:00,VALID,915.397,VALID,0,VALID,94.1458,VALID,0.0679233,VALID,18.1892,VALID,33,VALID,0.535773,
2001-09-28, 03:23:00,VALID,915.395,VALID,0,VALID,94.3187,VALID,0.101885,VALID,18.0822,VALID,29,VALID,0.792352,
2001-09-28, 03:24:00,VALID,915.393,VALID,0,VALID,95.0283,VALID,0.0509425,VALID,17.9885,VALID,34,VALID,0.896587,
2001-09-28, 03:25:00,VALID,915.388,VALID,0,VALID,95.926,VALID,0.0679233,VALID,17.9763,VALID,47,VALID,1.11418,
2001-09-28, 03:26:00,VALID,915.372,VALID,0,VALID,97.101,VALID,0.0509425,VALID,18.0533,VALID,49,VALID,1.22383,
2001-09-28, 03:27:00,VALID,915.361,VALID,0,VALID,97.3439,VALID,0.0679233,VALID,18.1438,VALID,58,VALID,1.16715,
2001-09-28, 03:28:00,VALID,915.342,VALID,0,VALID,97.3795,VALID,0.0509425,VALID,18.2019,VALID,66,VALID,1.05942,
2001-09-28, 03:29:00,VALID,915.324,VALID,0,VALID,97.1722,VALID,0.0509425,VALID,18.2473,VALID,66,VALID,0.597656,
2001-09-28, 03:30:00,VALID,915.316,VALID,0,VALID,96.8874,VALID,0.0339617,VALID,18.2374,VALID,77,VALID,0.539268,
2001-09-28, 03:31:00,VALID,915.314,VALID,0,VALID,96.7907,VALID,0.0849042,VALID,18.2217,VALID,87,VALID,0.641653,